[[{"header":{"parameterUnit":"m.s-1","parameterCategory":1,"la1":30.2992,"la2":30.254,"lo1":-89.0895,"lo2":-89.0443,"dy":0.0025,"dx":0.0025,"nx":19,"ny":19,"refTime":"2026-05-07T03:00:00:Z","depth":0,"parameterNumber":2,"parameterNumberName":"U-component_of_WINDS"},"data":[0,0,0,-4.3234,-4.3236,-4.3322,-4.3322,-4.3459,-4.346,0,0,0,0,0,0,0,0,0,0,0,-4.3226,-4.3228,-4.3234,-4.3236,-4.3322,-4.3322,-4.3459,-4.346,0,0,0,0,0,0,0,0,0,0,0,-4.3225,-4.3227,-4.3229,-4.3237,-4.3322,-4.3323,-4.3458,-4.3384,0,0,0,0,0,0,0,0,0,0,-4.3295,-4.3306,-4.3227,-4.3229,-4.3237,-4.3322,-4.3323,-4.338,-4.3388,-4.3432,0,-4.3477,0,-4.3471,-4.3471,-4.3472,0,0,0,-4.3223,-4.3299,-4.3306,-4.323,-4.3238,-4.3322,-4.328,-4.3384,-4.3394,-4.3444,-4.3478,-4.3483,-4.3473,-4.3472,-4.3473,-4.3773,-4.3775,0,0,-4.3218,-4.3251,-4.33,-4.3313,-4.3304,-4.3277,-4.3283,-4.339,-4.3429,-4.3479,-4.3485,-4.3476,-4.3474,-4.3475,-4.3771,-4.3773,0,0,0,-4.3214,-4.3248,-4.3252,-4.3309,-4.3322,-4.328,-4.3286,-4.3424,-4.3423,-4.3486,-4.3477,-4.3474,-4.3477,-4.3768,-4.3772,-4.3905,0,0,0,-4.321,-4.3245,-4.3251,-4.3272,-4.3321,-4.3375,-4.3319,-4.3416,-4.3427,-4.3476,-4.3475,-4.3478,-4.3766,-4.377,-4.3896,-4.3962,0,0,0,-4.3214,-4.3245,-4.3264,-4.3273,-4.3311,-4.3372,-4.3377,-4.3417,-4.3422,-4.3472,-4.3479,-4.3765,-4.3769,-4.3889,-4.395,-4.4051,0,0,0,-4.3228,-4.3381,-4.3267,-4.3433,-4.3311,-4.3454,-4.3375,-4.348,-4.3539,-4.3475,-4.3766,-4.3771,-4.3886,-4.3942,-4.4043,-4.4143,-4.4188,0,0,-4.3439,-4.3407,-4.3502,-4.3403,-4.3575,-4.3438,-4.3629,-4.3652,-4.3626,-4.3725,-4.3732,-4.3899,-4.3949,-4.405,-4.4425,-4.446,0,0,0,-4.358,-4.3649,-4.3688,-4.3746,-4.3768,-4.3791,-4.3781,-4.3789,-4.3872,-4.3684,-4.3961,-4.399,-4.4048,-4.4094,-4.4124,-4.4172,-4.3794,-4.3793,-4.3793,-4.3926,-4.3885,-4.404,-4.401,-4.4068,-4.4056,-4.4098,-4.4107,-4.4048,-4.4115,-4.4144,-4.4377,-4.4432,-4.4455,-4.4505,-4.4193,-4.4193,-4.4194,-4.4194,-4.4231,-4.4323,-4.4242,-4.4363,-4.4319,-4.442,-4.4414,-4.4369,-4.4456,-4.4351,-4.44,-4.429,-4.4495,-4.4537,-4.4204,-4.4202,-4.4201,-4.42,-4.4199,-4.4454,-4.449,-4.4498,-4.4578,-4.4644,-4.4607,-4.4695,-4.4651,-4.461,-4.4658,-4.4684,-4.4682,-4.4675,-4.4673,-4.4674,-4.4675,-4.4676,-4.4676,-4.4677,-4.4682,-4.4686,-4.4766,-4.4802,-4.4833,-4.4869,-4.4858,-4.4887,-4.4908,-4.4869,-4.4869,-4.4805,-4.4523,-4.4453,-4.4689,-4.4687,-4.4685,-4.4684,-4.4683,-4.5008,-4.4927,-4.5051,-4.5083,-4.512,-4.5189,-4.5131,-4.5195,-4.5212,-4.5257,-4.5181,-4.498,-4.4944,-4.492,-4.4862,-4.5189,-4.5189,-4.5189,-4.5189,-4.5196,-4.5174,-4.529,-4.5344,-4.5391,-4.5352,-4.5492,-4.5484,-4.5463,-4.5472,-4.5417,-4.5337,-4.5314,-4.5291,-4.5259,-4.5204,-4.5612,-4.5612,-4.5612,-4.5394,-4.5374,-4.5503,-4.5483,-4.5509,-4.5532,-4.5662,-4.5726,-4.5685,-4.5629,-4.5477,-4.5459,-4.5328,-4.5288,-4.5229,-4.5179,-4.5078,0,0]},{"header":{"parameterUnit":"m.s-1","parameterCategory":1,"la1":30.2992,"la2":30.254,"lo1":-89.0895,"lo2":-89.0443,"dy":0.0025,"dx":0.0025,"nx":19,"ny":19,"refTime":"2026-05-07T03:00:00:Z","depth":0,"parameterNumber":3,"parameterNumberName":"V-component_of_WINDS"},"data":[0,0,0,-0.5199,-0.52,-0.5261,-0.5261,-0.5332,-0.5333,0,0,0,0,0,0,0,0,0,0,0,-0.5175,-0.5175,-0.5199,-0.52,-0.5261,-0.5261,-0.5332,-0.5333,0,0,0,0,0,0,0,0,0,0,0,-0.5175,-0.5175,-0.5176,-0.52,-0.5261,-0.5261,-0.5332,-0.5289,0,0,0,0,0,0,0,0,0,0,-0.5231,-0.5204,-0.5175,-0.5176,-0.5201,-0.526,-0.5261,-0.5287,-0.5292,-0.5301,0,-0.5307,0,-0.532,-0.5337,-0.5337,0,0,0,-0.5205,-0.52,-0.5221,-0.5176,-0.5201,-0.526,-0.5235,-0.529,-0.5295,-0.5307,-0.5308,-0.5311,-0.5322,-0.5337,-0.5338,-0.537,-0.537,0,0,-0.5202,-0.5184,-0.5217,-0.5224,-0.5212,-0.5233,-0.5237,-0.5293,-0.5293,-0.5308,-0.5312,-0.5323,-0.5338,-0.5338,-0.537,-0.537,0,0,0,-0.5189,-0.5181,-0.5201,-0.5221,-0.5232,-0.5234,-0.5239,-0.5291,-0.5298,-0.5313,-0.5324,-0.5338,-0.5339,-0.537,-0.537,-0.5346,0,0,0,-0.5187,-0.5174,-0.5199,-0.5189,-0.523,-0.5262,-0.5235,-0.5295,-0.5301,-0.5323,-0.5338,-0.5339,-0.537,-0.537,-0.5347,-0.5338,0,0,0,-0.5173,-0.5172,-0.5178,-0.5188,-0.5213,-0.5261,-0.5272,-0.5296,-0.5308,-0.5337,-0.534,-0.537,-0.537,-0.5348,-0.534,-0.534,0,0,0,-0.5154,-0.5159,-0.5178,-0.5187,-0.5212,-0.5245,-0.5272,-0.5298,-0.5321,-0.5338,-0.537,-0.537,-0.5348,-0.5341,-0.5341,-0.5337,-0.5333,0,0,-0.515,-0.5158,-0.5165,-0.5183,-0.5207,-0.5237,-0.5259,-0.5299,-0.532,-0.5352,-0.5353,-0.5346,-0.534,-0.534,-0.5321,-0.5318,0,0,0,-0.5158,-0.5162,-0.5173,-0.5191,-0.5219,-0.5243,-0.528,-0.5294,-0.5322,-0.5332,-0.5348,-0.5344,-0.5345,-0.5344,-0.5342,-0.5344,-0.5368,-0.5368,-0.5369,-0.5127,-0.5151,-0.5163,-0.5193,-0.5211,-0.5248,-0.5265,-0.5291,-0.5313,-0.5315,-0.5325,-0.531,-0.5308,-0.5307,-0.5308,-0.5325,-0.5325,-0.5325,-0.5325,-0.5124,-0.5133,-0.5157,-0.5178,-0.5203,-0.5222,-0.5257,-0.5271,-0.5293,-0.5306,-0.5308,-0.532,-0.5303,-0.5305,-0.5324,-0.5324,-0.5324,-0.5324,-0.5324,-0.5106,-0.5115,-0.513,-0.5157,-0.5176,-0.5208,-0.5226,-0.5249,-0.5272,-0.5274,-0.5286,-0.5286,-0.5289,-0.5278,-0.5277,-0.5277,-0.5277,-0.5277,-0.5277,-0.5083,-0.51,-0.5111,-0.5138,-0.5152,-0.5173,-0.5209,-0.5224,-0.5246,-0.5262,-0.5262,-0.5282,-0.5296,-0.5299,-0.5277,-0.5277,-0.5277,-0.5277,-0.5277,-0.507,-0.5076,-0.5093,-0.5106,-0.5139,-0.5156,-0.5184,-0.5212,-0.5228,-0.5236,-0.5255,-0.5261,-0.5272,-0.5274,-0.5276,-0.525,-0.525,-0.525,-0.525,-0.5055,-0.5062,-0.5083,-0.5102,-0.5124,-0.515,-0.517,-0.5196,-0.5226,-0.5237,-0.5244,-0.5249,-0.525,-0.5261,-0.5263,-0.5266,-0.5237,-0.5237,-0.5237,-0.5049,-0.5057,-0.5069,-0.5094,-0.5121,-0.5144,-0.5162,-0.5185,-0.522,-0.5237,-0.5246,-0.5247,-0.5255,-0.5257,-0.5275,-0.5278,-0.5284,0,0]}]]